Tracking 23610 objects as of 19-Sep-2021
HD Live streaming from Space Station
objects crossing your sky now

ONEWEB-0304

Track ONEWEB-0304 now!
10-day predictions
ONEWEB-0304 is classified as:


NORAD ID: 49092
Int'l Code: 2021-075T
Perigee: 518.6 km
Apogee: 546.3 km
Inclination: 87.4 °
Period: 95.1 minutes
Semi major axis: 6903 km
RCS: Unknown
Launch date: August 21, 2021
Source: United Kingdom (UK)
Launch site: TYURATAM MISSILE AND SPACE COMPLEX (TTMTR)
aabbcc
Your satellite tracking list
Your tracking list is empty




NASA's NSSDC Master Catalog

Two Line Element Set (TLE):
1 49092U 21075T   21261.91667824 -.01027746  00000-0 -62136-1 0  9992
2 49092  87.4150 356.5415 0020018 199.1190 282.8452 15.13571750  5563
Source of the keplerian elements: AFSPC